Time,TemperatureF,DewpointF,PressureIn,WindDirection,WindDirectionDegrees,WindSpeedMPH,WindSpeedGustMPH,Humidity,HourlyPrecipIn,Conditions,Clouds,dailyrainin,SoftwareType,DateUTC
2013-10-14 00:01:00,60.3,59.9,30.22,NW,322,3.0,5.0,99,0.00,,,0.11,meteohub,2013-10-14 04:01:00,
2013-10-14 00:02:00,60.3,59.9,30.22,NW,317,4.0,5.0,99,0.00,,,0.11,meteohub,2013-10-14 04:02:00,
2013-10-14 00:03:00,60.3,59.9,30.22,NW,325,4.0,5.0,99,0.00,,,0.11,meteohub,2013-10-14 04:03:00,
2013-10-14 00:05:00,60.3,59.9,30.22,NW,325,3.0,5.0,99,0.00,,,0.00,meteohub,2013-10-14 04:05:00,
2013-10-14 00:10:00,60.3,59.9,30.21,NW,320,4.0,5.0,99,0.00,,,0.00,meteohub,2013-10-14 04:10:00,
2013-10-14 00:16:00,60.3,59.9,30.21,NW,321,4.0,5.0,99,0.00,,,0.00,meteohub,2013-10-14 04:16:00,
2013-10-14 00:21:00,60.3,59.9,30.22,NW,318,1.0,6.0,99,0.00,,,0.00,meteohub,2013-10-14 04:21:00,
2013-10-14 00:26:00,60.3,59.9,30.21,NW,319,4.0,6.0,99,0.00,,,0.00,meteohub,2013-10-14 04:26:00,
2013-10-14 00:31:00,60.3,59.9,30.22,NNW,329,1.0,6.0,99,0.00,,,0.00,meteohub,2013-10-14 04:31:00,
2013-10-14 00:36:00,60.3,59.9,30.21,NW,322,3.0,5.0,99,0.00,,,0.00,meteohub,2013-10-14 04:36:00,
2013-10-14 00:42:00,60.3,59.9,30.21,NW,325,3.0,5.0,99,0.00,,,0.00,meteohub,2013-10-14 04:42:00,
2013-10-14 00:47:00,60.3,59.9,30.22,NW,323,4.0,5.0,99,0.00,,,0.00,meteohub,2013-10-14 04:47:00,
2013-10-14 00:52:00,60.3,59.9,30.22,NW,324,3.0,6.0,99,0.00,,,0.00,meteohub,2013-10-14 04:52:00,
2013-10-14 00:57:00,60.3,59.9,30.21,NW,320,3.0,6.0,99,0.00,,,0.00,meteohub,2013-10-14 04:57:00,
2013-10-14 01:02:00,60.3,59.9,30.21,NW,320,3.0,6.0,99,0.00,,,0.00,meteohub,2013-10-14 05:02:00,
2013-10-14 01:07:00,60.3,59.9,30.21,NNW,329,3.0,5.0,99,0.00,,,0.00,meteohub,2013-10-14 05:07:00,
2013-10-14 01:12:00,60.3,59.9,30.21,NW,325,3.0,5.0,99,0.00,,,0.00,meteohub,2013-10-14 05:12:00,
2013-10-14 01:17:00,60.3,59.9,30.21,NW,323,2.0,5.0,99,0.00,,,0.00,meteohub,2013-10-14 05:17:00,
2013-10-14 01:22:00,60.3,59.9,30.21,NW,325,3.0,5.0,99,0.00,,,0.00,meteohub,2013-10-14 05:22:00,
2013-10-14 01:27:00,60.3,59.9,30.21,NW,320,2.0,5.0,99,0.00,,,0.00,meteohub,2013-10-14 05:27:00,
2013-10-14 01:32:00,60.3,59.9,30.21,NW,317,3.0,5.0,99,0.00,,,0.00,meteohub,2013-10-14 05:32:00,
2013-10-14 01:37:00,60.3,59.9,30.21,NW,323,3.0,5.0,99,0.01,,,0.01,meteohub,2013-10-14 05:37:00,
2013-10-14 01:42:00,60.3,59.9,30.21,NW,320,3.0,5.0,99,0.01,,,0.01,meteohub,2013-10-14 05:42:00,
2013-10-14 01:47:00,60.3,59.9,30.21,NW,316,2.0,5.0,99,0.01,,,0.01,meteohub,2013-10-14 05:47:00,
2013-10-14 01:52:00,60.3,59.9,30.21,NNW,328,4.0,5.0,99,0.01,,,0.01,meteohub,2013-10-14 05:52:00,
2013-10-14 01:57:00,60.4,60.1,30.21,NW,322,4.0,5.0,99,0.01,,,0.01,meteohub,2013-10-14 05:57:00,
2013-10-14 02:02:00,60.4,60.1,30.21,NW,323,2.0,5.0,99,0.01,,,0.01,meteohub,2013-10-14 06:02:00,
2013-10-14 02:07:00,60.4,60.1,30.21,NW,325,4.0,5.0,99,0.01,,,0.01,meteohub,2013-10-14 06:07:00,
2013-10-14 02:12:00,60.4,60.1,30.21,NNW,328,2.0,5.0,99,0.01,,,0.01,meteohub,2013-10-14 06:12:00,
2013-10-14 02:17:00,60.4,60.1,30.21,NW,323,3.0,5.0,99,0.01,,,0.01,meteohub,2013-10-14 06:17:00,
2013-10-14 02:22:00,60.4,60.1,30.21,NNW,336,2.0,5.0,99,0.01,,,0.01,meteohub,2013-10-14 06:22:00,
2013-10-14 02:27:00,60.4,60.1,30.21,NNW,336,2.0,5.0,99,0.01,,,0.01,meteohub,2013-10-14 06:27:00,
2013-10-14 02:33:00,60.4,60.1,30.21,NW,324,3.0,5.0,99,0.01,,,0.02,meteohub,2013-10-14 06:33:00,
2013-10-14 02:38:00,60.4,60.1,30.21,NW,317,3.0,5.0,99,0.01,,,0.02,meteohub,2013-10-14 06:38:00,
2013-10-14 02:43:00,60.4,60.1,30.21,NNW,334,3.0,7.0,99,0.01,,,0.02,meteohub,2013-10-14 06:43:00,
2013-10-14 02:48:00,60.4,60.4,30.21,NW,315,2.0,7.0,100,0.01,,,0.02,meteohub,2013-10-14 06:48:00,
2013-10-14 02:53:00,60.6,60.6,30.21,NNW,327,3.0,7.0,100,0.01,,,0.02,meteohub,2013-10-14 06:53:00,
2013-10-14 02:59:00,60.6,60.6,30.21,NW,325,4.0,5.0,100,0.01,,,0.02,meteohub,2013-10-14 06:59:00,
2013-10-14 03:04:00,60.6,60.6,30.20,NW,324,4.0,5.0,100,0.01,,,0.02,meteohub,2013-10-14 07:04:00,
2013-10-14 03:09:00,60.6,60.6,30.20,NNW,344,2.0,5.0,100,0.01,,,0.02,meteohub,2013-10-14 07:09:00,
2013-10-14 03:14:00,60.6,60.6,30.20,NW,319,3.0,6.0,100,0.01,,,0.02,meteohub,2013-10-14 07:14:00,
2013-10-14 03:20:00,60.6,60.6,30.21,NNW,328,5.0,6.0,100,0.01,,,0.02,meteohub,2013-10-14 07:20:00,
2013-10-14 03:25:00,60.6,60.6,30.21,NW,307,2.0,5.0,100,0.00,,,0.02,meteohub,2013-10-14 07:25:00,
2013-10-14 03:30:00,60.6,60.6,30.20,NNW,327,3.0,5.0,100,0.00,,,0.02,meteohub,2013-10-14 07:30:00,
2013-10-14 03:35:00,60.6,60.6,30.20,NW,319,2.0,5.0,100,0.00,,,0.02,meteohub,2013-10-14 07:35:00,
2013-10-14 03:40:00,60.6,60.6,30.20,NW,326,3.0,5.0,100,0.00,,,0.02,meteohub,2013-10-14 07:40:00,
2013-10-14 03:46:00,60.6,60.6,30.20,NW,315,3.0,4.0,100,0.00,,,0.02,meteohub,2013-10-14 07:46:00,
2013-10-14 03:51:00,60.6,60.6,30.20,NW,321,2.0,4.0,100,0.00,,,0.02,meteohub,2013-10-14 07:51:00,
2013-10-14 03:56:00,60.6,60.6,30.21,NW,321,5.0,6.0,100,0.00,,,0.02,meteohub,2013-10-14 07:56:00,
2013-10-14 04:01:00,60.4,60.4,30.21,NW,316,2.0,7.0,100,0.00,,,0.02,meteohub,2013-10-14 08:01:00,
2013-10-14 04:07:00,60.4,60.4,30.21,NW,318,3.0,7.0,100,0.00,,,0.02,meteohub,2013-10-14 08:07:00,
2013-10-14 04:12:00,60.4,60.4,30.21,NW,319,7.0,7.0,100,0.00,,,0.02,meteohub,2013-10-14 08:12:00,
2013-10-14 04:17:00,60.4,60.4,30.21,NNW,333,4.0,7.0,100,0.00,,,0.02,meteohub,2013-10-14 08:17:00,
2013-10-14 04:22:00,60.4,60.1,30.21,NW,321,6.0,7.0,99,0.00,,,0.02,meteohub,2013-10-14 08:22:00,
2013-10-14 04:27:00,60.4,60.1,30.21,NW,321,1.0,7.0,99,0.00,,,0.02,meteohub,2013-10-14 08:27:00,
2013-10-14 04:32:00,60.4,60.1,30.22,NW,326,3.0,7.0,99,0.00,,,0.02,meteohub,2013-10-14 08:32:00,
2013-10-14 04:37:00,60.4,60.1,30.22,NW,324,4.0,6.0,99,0.00,,,0.02,meteohub,2013-10-14 08:37:00,
2013-10-14 04:42:00,60.4,60.4,30.22,NW,319,3.0,6.0,100,0.00,,,0.02,meteohub,2013-10-14 08:42:00,
2013-10-14 04:47:00,60.3,59.9,30.22,NW,326,5.0,6.0,99,0.00,,,0.02,meteohub,2013-10-14 08:47:00,
2013-10-14 04:52:00,60.3,59.9,30.22,NNW,327,4.0,7.0,99,0.00,,,0.02,meteohub,2013-10-14 08:52:00,
2013-10-14 04:57:00,60.3,60.3,30.22,WNW,300,4.0,7.0,100,0.00,,,0.02,meteohub,2013-10-14 08:57:00,
2013-10-14 05:02:00,60.3,60.3,30.22,NW,310,5.0,7.0,100,0.00,,,0.02,meteohub,2013-10-14 09:02:00,
2013-10-14 05:07:00,60.3,60.3,30.22,NNW,329,3.0,8.0,100,0.01,,,0.03,meteohub,2013-10-14 09:07:00,
2013-10-14 05:12:00,60.3,60.3,30.22,NW,315,5.0,8.0,100,0.01,,,0.03,meteohub,2013-10-14 09:12:00,
2013-10-14 05:17:00,60.3,60.3,30.22,NW,317,4.0,9.0,100,0.01,,,0.03,meteohub,2013-10-14 09:17:00,
2013-10-14 05:22:00,60.3,60.3,30.22,NW,318,5.0,9.0,100,0.01,,,0.03,meteohub,2013-10-14 09:22:00,
2013-10-14 05:27:00,60.3,60.3,30.22,NW,319,5.0,9.0,100,0.01,,,0.03,meteohub,2013-10-14 09:27:00,
2013-10-14 05:32:00,60.1,60.1,30.22,NW,319,3.0,7.0,100,0.01,,,0.03,meteohub,2013-10-14 09:32:00,
2013-10-14 05:37:00,60.1,60.1,30.22,NW,313,3.0,6.0,100,0.01,,,0.03,meteohub,2013-10-14 09:37:00,
2013-10-14 05:42:00,60.1,60.1,30.22,NW,321,3.0,6.0,100,0.01,,,0.03,meteohub,2013-10-14 09:42:00,
2013-10-14 05:47:00,60.1,60.1,30.22,NW,315,6.0,6.0,100,0.01,,,0.03,meteohub,2013-10-14 09:47:00,
2013-10-14 05:52:00,60.1,60.1,30.22,NW,318,2.0,6.0,100,0.01,,,0.03,meteohub,2013-10-14 09:52:00,
2013-10-14 05:57:00,60.1,60.1,30.22,NNW,328,3.0,6.0,100,0.01,,,0.03,meteohub,2013-10-14 09:57:00,
2013-10-14 06:02:00,60.1,60.1,30.22,NW,317,3.0,6.0,100,0.00,,,0.03,meteohub,2013-10-14 10:02:00,
2013-10-14 06:07:00,60.1,60.1,30.22,NW,319,4.0,6.0,100,0.00,,,0.03,meteohub,2013-10-14 10:07:00,
2013-10-14 06:12:00,60.1,60.1,30.22,NW,319,4.0,6.0,100,0.00,,,0.03,meteohub,2013-10-14 10:12:00,
2013-10-14 06:17:00,59.9,59.5,30.22,NW,316,5.0,5.0,99,0.00,,,0.03,meteohub,2013-10-14 10:17:00,
2013-10-14 06:22:00,59.9,59.5,30.22,NNW,334,2.0,6.0,99,0.00,,,0.03,meteohub,2013-10-14 10:22:00,
2013-10-14 06:27:00,59.9,59.5,30.22,NW,317,2.0,6.0,99,0.00,,,0.03,meteohub,2013-10-14 10:27:00,
2013-10-14 06:32:00,59.7,59.4,30.22,NW,317,2.0,6.0,99,0.00,,,0.03,meteohub,2013-10-14 10:32:00,
2013-10-14 06:37:00,59.7,59.4,30.22,NW,320,5.0,6.0,99,0.00,,,0.03,meteohub,2013-10-14 10:37:00,
2013-10-14 06:42:00,59.7,59.4,30.22,NW,320,3.0,6.0,99,0.00,,,0.03,meteohub,2013-10-14 10:42:00,
2013-10-14 06:47:00,59.7,59.4,30.22,NW,318,4.0,6.0,99,0.00,,,0.03,meteohub,2013-10-14 10:47:00,
2013-10-14 06:52:00,59.7,59.4,30.22,NNW,340,3.0,6.0,99,0.00,,,0.03,meteohub,2013-10-14 10:52:00,
2013-10-14 06:57:00,59.7,59.4,30.22,NW,320,5.0,6.0,99,0.00,,,0.03,meteohub,2013-10-14 10:57:00,
2013-10-14 07:02:00,59.7,59.4,30.22,NW,325,3.0,6.0,99,0.00,,,0.03,meteohub,2013-10-14 11:02:00,
2013-10-14 07:07:00,59.7,59.4,30.22,NW,321,3.0,6.0,99,0.00,,,0.03,meteohub,2013-10-14 11:07:00,
2013-10-14 07:12:00,59.5,59.2,30.22,NW,322,5.0,6.0,99,0.00,,,0.03,meteohub,2013-10-14 11:12:00,
2013-10-14 07:17:00,59.5,59.2,30.22,NW,315,2.0,5.0,99,0.00,,,0.03,meteohub,2013-10-14 11:17:00,
2013-10-14 07:22:00,59.5,59.2,30.22,NW,320,3.0,6.0,99,0.00,,,0.03,meteohub,2013-10-14 11:22:00,
2013-10-14 07:27:00,59.5,59.2,30.22,NW,325,1.0,6.0,99,0.00,,,0.03,meteohub,2013-10-14 11:27:00,
2013-10-14 07:32:00,59.5,59.2,30.22,NW,322,3.0,4.0,99,0.00,,,0.03,meteohub,2013-10-14 11:32:00,
2013-10-14 07:37:00,59.5,59.2,30.23,NW,318,3.0,5.0,99,0.00,,,0.03,meteohub,2013-10-14 11:37:00,
2013-10-14 07:42:00,59.5,59.2,30.23,NW,326,3.0,5.0,99,0.00,,,0.03,meteohub,2013-10-14 11:42:00,
2013-10-14 07:47:00,59.5,59.2,30.23,NW,310,4.0,5.0,99,0.00,,,0.03,meteohub,2013-10-14 11:47:00,
2013-10-14 07:52:00,59.5,59.2,30.23,NNW,327,3.0,5.0,99,0.00,,,0.03,meteohub,2013-10-14 11:52:00,
2013-10-14 07:57:00,59.5,59.2,30.23,WNW,302,3.0,5.0,99,0.00,,,0.03,meteohub,2013-10-14 11:57:00,
2013-10-14 08:02:00,59.5,59.2,30.23,WNW,300,3.0,5.0,99,0.00,,,0.03,meteohub,2013-10-14 12:02:00,
2013-10-14 08:07:00,59.5,59.2,30.24,NW,322,1.0,5.0,99,0.00,,,0.03,meteohub,2013-10-14 12:07:00,
2013-10-14 08:12:00,59.5,59.2,30.24,NW,325,6.0,6.0,99,0.00,,,0.03,meteohub,2013-10-14 12:12:00,
2013-10-14 08:17:00,59.5,59.2,30.24,NNW,333,2.0,6.0,99,0.00,,,0.03,meteohub,2013-10-14 12:17:00,
2013-10-14 08:22:00,59.5,59.2,30.25,NW,317,5.0,6.0,99,0.00,,,0.03,meteohub,2013-10-14 12:22:00,
2013-10-14 08:27:00,59.5,59.2,30.25,NNW,327,4.0,6.0,99,0.00,,,0.03,meteohub,2013-10-14 12:27:00,
2013-10-14 08:32:00,59.5,59.2,30.25,NW,321,2.0,6.0,99,0.00,,,0.03,meteohub,2013-10-14 12:32:00,
2013-10-14 08:37:00,59.5,59.2,30.25,NNW,337,1.0,6.0,99,0.00,,,0.03,meteohub,2013-10-14 12:37:00,
2013-10-14 08:42:00,59.5,59.2,30.25,NNW,333,2.0,6.0,99,0.00,,,0.03,meteohub,2013-10-14 12:42:00,
2013-10-14 08:47:00,59.5,59.2,30.25,NW,320,4.0,5.0,99,0.00,,,0.03,meteohub,2013-10-14 12:47:00,
2013-10-14 08:52:00,59.5,59.2,30.26,NW,317,3.0,5.0,99,0.00,,,0.03,meteohub,2013-10-14 12:52:00,
2013-10-14 08:57:00,59.5,59.2,30.26,NW,320,2.0,5.0,99,0.00,,,0.03,meteohub,2013-10-14 12:57:00,
2013-10-14 09:02:00,59.5,59.2,30.26,NW,321,3.0,5.0,99,0.00,,,0.03,meteohub,2013-10-14 13:02:00,
2013-10-14 09:07:00,59.5,59.2,30.26,NW,323,4.0,6.0,99,0.00,,,0.03,meteohub,2013-10-14 13:07:00,
2013-10-14 09:12:00,59.5,59.2,30.26,NW,321,3.0,6.0,99,0.00,,,0.03,meteohub,2013-10-14 13:12:00,
2013-10-14 09:17:00,59.5,59.2,30.26,NW,311,4.0,7.0,99,0.00,,,0.03,meteohub,2013-10-14 13:17:00,
2013-10-14 09:22:00,59.5,59.2,30.26,NNW,336,3.0,7.0,99,0.00,,,0.03,meteohub,2013-10-14 13:22:00,
2013-10-14 09:27:00,59.5,59.2,30.26,NW,324,4.0,7.0,99,0.00,,,0.03,meteohub,2013-10-14 13:27:00,
2013-10-14 09:32:00,59.5,59.2,30.26,NW,326,4.0,6.0,99,0.00,,,0.03,meteohub,2013-10-14 13:32:00,
2013-10-14 09:37:00,59.5,59.2,30.26,NW,324,3.0,6.0,99,0.00,,,0.03,meteohub,2013-10-14 13:37:00,
2013-10-14 09:42:00,59.5,59.2,30.26,NNW,332,2.0,6.0,99,0.00,,,0.03,meteohub,2013-10-14 13:42:00,
2013-10-14 09:47:00,59.5,59.2,30.26,NW,318,1.0,5.0,99,0.00,,,0.03,meteohub,2013-10-14 13:47:00,
2013-10-14 09:52:00,59.5,59.2,30.26,NNW,331,2.0,4.0,99,0.00,,,0.03,meteohub,2013-10-14 13:52:00,
2013-10-14 09:57:00,59.5,59.2,30.26,NNW,340,3.0,4.0,99,0.00,,,0.03,meteohub,2013-10-14 13:57:00,
2013-10-14 10:02:00,59.5,59.2,30.26,NW,320,3.0,5.0,99,0.00,,,0.03,meteohub,2013-10-14 14:02:00,
2013-10-14 10:07:00,59.5,59.2,30.26,NNW,331,2.0,5.0,99,0.00,,,0.03,meteohub,2013-10-14 14:07:00,
2013-10-14 10:12:00,59.5,59.2,30.25,NNW,327,1.0,6.0,99,0.00,,,0.03,meteohub,2013-10-14 14:12:00,
2013-10-14 10:17:00,59.5,59.2,30.25,NW,316,2.0,6.0,99,0.00,,,0.03,meteohub,2013-10-14 14:17:00,
2013-10-14 10:22:00,59.5,59.2,30.25,NW,326,1.0,6.0,99,0.00,,,0.03,meteohub,2013-10-14 14:22:00,
2013-10-14 10:27:00,59.7,59.4,30.26,NNW,341,3.0,4.0,99,0.00,,,0.03,meteohub,2013-10-14 14:27:00,
2013-10-14 10:32:00,59.7,59.4,30.25,SSW,211,0.0,4.0,99,0.00,,,0.03,meteohub,2013-10-14 14:32:00,
2013-10-14 10:37:00,59.7,59.4,30.25,North,350,1.0,4.0,99,0.00,,,0.03,meteohub,2013-10-14 14:37:00,
2013-10-14 10:42:00,59.7,59.4,30.25,NW,316,3.0,3.0,99,0.00,,,0.03,meteohub,2013-10-14 14:42:00,
2013-10-14 10:47:00,59.7,59.4,30.25,NW,323,0.0,4.0,99,0.00,,,0.03,meteohub,2013-10-14 14:47:00,
2013-10-14 10:52:00,59.9,59.5,30.25,NW,323,1.0,4.0,99,0.00,,,0.03,meteohub,2013-10-14 14:52:00,
2013-10-14 10:57:00,59.9,59.5,30.25,NW,323,1.0,4.0,99,0.00,,,0.03,meteohub,2013-10-14 14:57:00,
2013-10-14 11:02:00,59.9,59.5,30.25,NW,323,3.0,3.0,99,0.00,,,0.03,meteohub,2013-10-14 15:02:00,
2013-10-14 11:07:00,60.1,60.1,30.25,NNW,343,2.0,3.0,100,0.00,,,0.03,meteohub,2013-10-14 15:07:00,
2013-10-14 11:12:00,60.1,60.1,30.25,NW,313,3.0,3.0,100,0.00,,,0.03,meteohub,2013-10-14 15:12:00,
2013-10-14 11:17:00,60.1,60.1,30.25,NW,323,3.0,4.0,100,0.00,,,0.03,meteohub,2013-10-14 15:17:00,
2013-10-14 11:22:00,60.1,60.1,30.25,NNW,331,1.0,4.0,100,0.00,,,0.03,meteohub,2013-10-14 15:22:00,
2013-10-14 11:27:00,60.1,59.7,30.25,NNW,327,2.0,7.0,99,0.00,,,0.03,meteohub,2013-10-14 15:27:00,
2013-10-14 11:32:00,60.3,59.9,30.25,NW,320,3.0,7.0,99,0.00,,,0.03,meteohub,2013-10-14 15:32:00,
2013-10-14 11:37:00,60.3,59.9,30.25,NW,317,0.0,7.0,99,0.00,,,0.03,meteohub,2013-10-14 15:37:00,
2013-10-14 11:42:00,60.3,59.9,30.25,NW,317,1.0,4.0,99,0.00,,,0.03,meteohub,2013-10-14 15:42:00,
2013-10-14 11:47:00,60.4,60.1,30.25,NW,316,2.0,4.0,99,0.00,,,0.03,meteohub,2013-10-14 15:47:00,
2013-10-14 11:52:00,60.4,60.1,30.25,NW,325,4.0,5.0,99,0.00,,,0.03,meteohub,2013-10-14 15:52:00,
2013-10-14 11:57:00,60.4,60.1,30.25,NW,319,4.0,6.0,99,0.00,,,0.03,meteohub,2013-10-14 15:57:00,
2013-10-14 12:02:00,60.4,60.1,30.25,NW,319,2.0,7.0,99,0.00,,,0.03,meteohub,2013-10-14 16:02:00,
2013-10-14 12:07:00,60.4,60.1,30.25,NW,315,4.0,7.0,99,0.00,,,0.03,meteohub,2013-10-14 16:07:00,
2013-10-14 12:12:00,60.4,60.1,30.25,NW,319,4.0,6.0,99,0.00,,,0.03,meteohub,2013-10-14 16:12:00,
2013-10-14 12:17:00,60.6,60.3,30.25,NW,323,5.0,5.0,99,0.00,,,0.03,meteohub,2013-10-14 16:17:00,
2013-10-14 12:22:00,60.6,60.3,30.25,NW,321,3.0,6.0,99,0.00,,,0.03,meteohub,2013-10-14 16:22:00,
2013-10-14 12:27:00,60.6,60.1,30.25,NW,323,2.0,6.0,98,0.00,,,0.03,meteohub,2013-10-14 16:27:00,
2013-10-14 12:32:00,60.6,60.1,30.25,NW,325,4.0,6.0,98,0.00,,,0.03,meteohub,2013-10-14 16:32:00,
2013-10-14 12:37:00,60.6,60.1,30.25,NNW,327,3.0,6.0,98,0.00,,,0.03,meteohub,2013-10-14 16:37:00,
2013-10-14 12:42:00,60.8,60.3,30.25,NW,324,3.0,6.0,98,0.00,,,0.03,meteohub,2013-10-14 16:42:00,
2013-10-14 12:47:00,61.0,60.4,30.24,NW,321,3.0,6.0,98,0.00,,,0.03,meteohub,2013-10-14 16:47:00,
2013-10-14 12:52:00,61.0,60.4,30.24,NNW,327,1.0,6.0,98,0.00,,,0.03,meteohub,2013-10-14 16:52:00,
2013-10-14 12:57:00,61.2,60.3,30.24,NW,317,2.0,5.0,97,0.00,,,0.03,meteohub,2013-10-14 16:57:00,
2013-10-14 13:02:00,61.2,60.3,30.24,NW,326,2.0,5.0,97,0.00,,,0.03,meteohub,2013-10-14 17:02:00,
2013-10-14 13:07:00,61.3,60.4,30.23,NW,323,2.0,5.0,97,0.00,,,0.03,meteohub,2013-10-14 17:07:00,
2013-10-14 13:12:00,61.3,60.4,30.23,NW,324,3.0,4.0,97,0.00,,,0.03,meteohub,2013-10-14 17:12:00,
2013-10-14 13:17:00,61.5,60.4,30.23,NW,314,3.0,5.0,96,0.00,,,0.03,meteohub,2013-10-14 17:17:00,
2013-10-14 13:22:00,61.7,60.6,30.23,NW,311,5.0,5.0,96,0.00,,,0.03,meteohub,2013-10-14 17:22:00,
2013-10-14 13:27:00,61.9,60.8,30.22,NW,318,4.0,6.0,96,0.00,,,0.03,meteohub,2013-10-14 17:27:00,
2013-10-14 13:32:00,62.1,61.0,30.22,NW,325,2.0,6.0,96,0.00,,,0.03,meteohub,2013-10-14 17:32:00,
2013-10-14 13:37:00,62.2,60.8,30.22,NW,320,3.0,6.0,95,0.00,,,0.03,meteohub,2013-10-14 17:37:00,
2013-10-14 13:42:00,62.8,61.0,30.22,NNW,336,4.0,4.0,94,0.00,,,0.03,meteohub,2013-10-14 17:42:00,
2013-10-14 13:47:00,62.8,61.0,30.22,NW,314,4.0,5.0,94,0.00,,,0.03,meteohub,2013-10-14 17:47:00,
2013-10-14 13:52:00,62.8,61.0,30.22,NW,324,3.0,7.0,94,0.00,,,0.03,meteohub,2013-10-14 17:52:00,
2013-10-14 13:57:00,62.8,61.0,30.22,NW,318,5.0,7.0,94,0.00,,,0.03,meteohub,2013-10-14 17:57:00,
2013-10-14 14:02:00,62.6,60.8,30.22,NW,323,5.0,7.0,94,0.00,,,0.03,meteohub,2013-10-14 18:02:00,
2013-10-14 14:07:00,62.4,60.6,30.22,NW,317,3.0,8.0,94,0.00,,,0.03,meteohub,2013-10-14 18:07:00,
2013-10-14 14:12:00,62.2,60.4,30.21,NW,325,3.0,8.0,94,0.00,,,0.03,meteohub,2013-10-14 18:12:00,
2013-10-14 14:17:00,62.2,60.3,30.21,NW,320,3.0,8.0,93,0.00,,,0.03,meteohub,2013-10-14 18:17:00,
2013-10-14 14:22:00,62.4,60.6,30.21,NW,322,3.0,7.0,94,0.00,,,0.03,meteohub,2013-10-14 18:22:00,
2013-10-14 14:27:00,62.6,60.6,30.21,NW,319,5.0,6.0,93,0.00,,,0.03,meteohub,2013-10-14 18:27:00,
2013-10-14 14:32:00,62.6,60.6,30.21,NNW,327,3.0,6.0,93,0.00,,,0.03,meteohub,2013-10-14 18:32:00,
2013-10-14 14:37:00,62.8,60.8,30.21,NNW,328,1.0,6.0,93,0.00,,,0.03,meteohub,2013-10-14 18:37:00,
2013-10-14 14:42:00,62.8,60.8,30.21,NW,316,2.0,6.0,93,0.00,,,0.03,meteohub,2013-10-14 18:42:00,
2013-10-14 14:47:00,62.8,60.8,30.21,NW,306,2.0,5.0,93,0.00,,,0.03,meteohub,2013-10-14 18:47:00,
2013-10-14 14:52:00,63.0,61.0,30.21,NW,325,2.0,4.0,93,0.00,,,0.03,meteohub,2013-10-14 18:52:00,
2013-10-14 14:57:00,63.0,61.0,30.21,NW,324,4.0,4.0,93,0.00,,,0.03,meteohub,2013-10-14 18:57:00,
2013-10-14 15:02:00,63.0,60.6,30.21,NW,323,2.0,4.0,92,0.00,,,0.03,meteohub,2013-10-14 19:02:00,
2013-10-14 15:07:00,63.0,60.6,30.20,NW,315,3.0,4.0,92,0.00,,,0.03,meteohub,2013-10-14 19:07:00,
2013-10-14 15:12:00,63.0,60.6,30.20,NW,315,2.0,4.0,92,0.00,,,0.03,meteohub,2013-10-14 19:12:00,
2013-10-14 15:17:00,63.0,60.6,30.20,NW,323,2.0,4.0,92,0.00,,,0.03,meteohub,2013-10-14 19:17:00,
2013-10-14 15:22:00,63.1,60.8,30.20,NW,309,2.0,6.0,92,0.00,,,0.03,meteohub,2013-10-14 19:22:00,
2013-10-14 15:27:00,63.0,60.6,30.20,NNW,327,5.0,6.0,92,0.00,,,0.03,meteohub,2013-10-14 19:27:00,
2013-10-14 15:32:00,63.0,60.6,30.20,NW,319,5.0,6.0,92,0.00,,,0.03,meteohub,2013-10-14 19:32:00,
2013-10-14 15:37:00,63.0,60.6,30.20,NW,317,3.0,6.0,92,0.00,,,0.03,meteohub,2013-10-14 19:37:00,
2013-10-14 15:42:00,62.8,60.4,30.20,NW,323,2.0,6.0,92,0.00,,,0.03,meteohub,2013-10-14 19:42:00,
2013-10-14 15:47:00,62.8,60.8,30.20,NW,323,1.0,6.0,93,0.00,,,0.03,meteohub,2013-10-14 19:47:00,
2013-10-14 15:52:00,62.8,60.8,30.20,NNW,333,2.0,4.0,93,0.00,,,0.03,meteohub,2013-10-14 19:52:00,
2013-10-14 15:57:00,62.8,60.4,30.20,NW,319,2.0,4.0,92,0.00,,,0.03,meteohub,2013-10-14 19:57:00,
2013-10-14 16:02:00,62.8,60.8,30.20,NW,319,3.0,5.0,93,0.00,,,0.03,meteohub,2013-10-14 20:02:00,
2013-10-14 16:07:00,62.8,60.4,30.20,NNW,331,0.0,5.0,92,0.00,,,0.03,meteohub,2013-10-14 20:07:00,
2013-10-14 16:12:00,62.8,60.8,30.20,WNW,302,2.0,4.0,93,0.00,,,0.03,meteohub,2013-10-14 20:12:00,
2013-10-14 16:17:00,62.8,60.4,30.20,NW,309,4.0,4.0,92,0.00,,,0.03,meteohub,2013-10-14 20:17:00,
2013-10-14 16:22:00,62.8,60.4,30.20,NW,325,2.0,4.0,92,0.00,,,0.03,meteohub,2013-10-14 20:22:00,
2013-10-14 16:27:00,62.8,60.4,30.20,NNW,336,2.0,4.0,92,0.00,,,0.03,meteohub,2013-10-14 20:27:00,
2013-10-14 16:32:00,63.0,60.6,30.20,NNW,335,1.0,4.0,92,0.00,,,0.03,meteohub,2013-10-14 20:32:00,
2013-10-14 16:37:00,63.0,60.6,30.19,NW,315,1.0,4.0,92,0.00,,,0.03,meteohub,2013-10-14 20:37:00,
2013-10-14 16:42:00,63.0,60.6,30.19,NNW,334,2.0,5.0,92,0.00,,,0.03,meteohub,2013-10-14 20:42:00,
2013-10-14 16:47:00,63.0,60.6,30.19,NW,320,2.0,5.0,92,0.00,,,0.03,meteohub,2013-10-14 20:47:00,
2013-10-14 16:52:00,62.8,60.4,30.20,NW,321,2.0,5.0,92,0.00,,,0.03,meteohub,2013-10-14 20:52:00,
2013-10-14 16:57:00,62.6,60.6,30.20,NW,321,1.0,5.0,93,0.00,,,0.03,meteohub,2013-10-14 20:57:00,
2013-10-14 17:02:00,62.4,60.4,30.20,NW,319,1.0,5.0,93,0.00,,,0.03,meteohub,2013-10-14 21:02:00,
2013-10-14 17:08:00,62.2,60.3,30.20,SW,225,0.0,4.0,93,0.00,,,0.03,meteohub,2013-10-14 21:08:00,
2013-10-14 17:13:00,62.2,60.3,30.21,SW,225,0.0,3.0,93,0.00,,,0.03,meteohub,2013-10-14 21:13:00,
2013-10-14 17:18:00,62.1,60.3,30.21,SW,225,0.0,3.0,94,0.00,,,0.03,meteohub,2013-10-14 21:18:00,
2013-10-14 17:23:00,62.1,60.3,30.21,SW,221,0.0,2.0,94,0.00,,,0.03,meteohub,2013-10-14 21:23:00,
2013-10-14 17:28:00,61.9,60.1,30.21,WNW,282,0.0,2.0,94,0.00,,,0.03,meteohub,2013-10-14 21:28:00,
2013-10-14 17:34:00,61.9,60.1,30.21,WNW,288,0.0,2.0,94,0.00,,,0.03,meteohub,2013-10-14 21:34:00,
2013-10-14 17:39:00,61.9,59.9,30.21,WNW,288,0.0,2.0,93,0.00,,,0.03,meteohub,2013-10-14 21:39:00,
2013-10-14 17:44:00,61.9,60.1,30.21,WNW,284,0.0,2.0,94,0.00,,,0.03,meteohub,2013-10-14 21:44:00,
2013-10-14 17:49:00,61.7,59.9,30.21,WNW,284,0.0,2.0,94,0.00,,,0.03,meteohub,2013-10-14 21:49:00,
2013-10-14 17:54:00,61.7,59.9,30.21,WNW,284,0.0,2.0,94,0.00,,,0.03,meteohub,2013-10-14 21:54:00,
2013-10-14 18:00:00,61.7,59.9,30.21,West,273,0.0,1.0,94,0.00,,,0.03,meteohub,2013-10-14 22:00:00,
2013-10-14 18:05:00,61.5,59.7,30.21,West,263,0.0,1.0,94,0.00,,,0.03,meteohub,2013-10-14 22:05:00,
2013-10-14 18:10:00,61.5,59.5,30.22,SE,144,0.0,3.0,93,0.00,,,0.03,meteohub,2013-10-14 22:10:00,
2013-10-14 18:15:00,61.3,59.4,30.22,South,188,0.0,3.0,93,0.00,,,0.03,meteohub,2013-10-14 22:15:00,
2013-10-14 18:20:00,61.2,59.2,30.22,SW,234,0.0,3.0,93,0.00,,,0.03,meteohub,2013-10-14 22:20:00,
2013-10-14 18:25:00,61.2,59.2,30.22,WNW,301,1.0,3.0,93,0.00,,,0.03,meteohub,2013-10-14 22:25:00,
2013-10-14 18:31:00,61.0,59.2,30.22,SW,219,1.0,3.0,94,0.00,,,0.03,meteohub,2013-10-14 22:31:00,
2013-10-14 18:36:00,61.0,59.2,30.22,NW,323,0.0,2.0,94,0.00,,,0.03,meteohub,2013-10-14 22:36:00,
2013-10-14 18:41:00,60.8,59.0,30.22,NW,322,0.0,3.0,94,0.00,,,0.03,meteohub,2013-10-14 22:41:00,
2013-10-14 18:46:00,60.6,58.8,30.22,NW,322,2.0,3.0,94,0.00,,,0.03,meteohub,2013-10-14 22:46:00,
2013-10-14 18:52:00,60.6,58.6,30.21,NNW,327,3.0,3.0,93,0.00,,,0.03,meteohub,2013-10-14 22:52:00,
2013-10-14 18:57:00,60.4,58.5,30.21,NW,320,2.0,5.0,93,0.00,,,0.03,meteohub,2013-10-14 22:57:00,
2013-10-14 19:02:00,60.4,58.5,30.21,NW,320,1.0,5.0,93,0.00,,,0.03,meteohub,2013-10-14 23:02:00,
2013-10-14 19:07:00,60.3,58.3,30.21,NW,320,2.0,5.0,93,0.00,,,0.03,meteohub,2013-10-14 23:07:00,
2013-10-14 19:12:00,60.1,58.1,30.21,NW,320,2.0,4.0,93,0.00,,,0.03,meteohub,2013-10-14 23:12:00,
2013-10-14 19:17:00,60.1,58.1,30.21,NW,320,2.0,4.0,93,0.00,,,0.03,meteohub,2013-10-14 23:17:00,
2013-10-14 19:22:00,59.9,58.1,30.21,NW,320,2.0,3.0,94,0.00,,,0.03,meteohub,2013-10-14 23:22:00,
2013-10-14 19:27:00,59.7,57.9,30.21,NW,320,1.0,3.0,94,0.00,,,0.03,meteohub,2013-10-14 23:27:00,
2013-10-14 19:32:00,59.5,57.7,30.21,NW,320,1.0,3.0,94,0.00,,,0.03,meteohub,2013-10-14 23:32:00,
2013-10-14 19:37:00,59.5,57.7,30.21,NW,320,1.0,3.0,94,0.00,,,0.03,meteohub,2013-10-14 23:37:00,
2013-10-14 19:42:00,59.4,57.6,30.21,NW,320,1.0,2.0,94,0.00,,,0.03,meteohub,2013-10-14 23:42:00,
2013-10-14 19:47:00,59.2,57.4,30.21,NW,320,2.0,3.0,94,0.00,,,0.03,meteohub,2013-10-14 23:47:00,
2013-10-14 19:52:00,59.0,57.6,30.21,NW,320,2.0,3.0,95,0.00,,,0.03,meteohub,2013-10-14 23:52:00,
2013-10-14 19:57:00,58.8,57.4,30.22,NW,320,2.0,3.0,95,0.00,,,0.03,meteohub,2013-10-14 23:57:00,
2013-10-14 20:02:00,58.6,57.2,30.22,NW,320,1.0,3.0,95,0.00,,,0.03,meteohub,2013-10-15 00:02:00,
2013-10-14 20:07:00,58.6,57.6,30.22,NW,320,2.0,3.0,96,0.00,,,0.03,meteohub,2013-10-15 00:07:00,
2013-10-14 20:12:00,58.5,57.4,30.22,NW,320,2.0,3.0,96,0.00,,,0.03,meteohub,2013-10-15 00:12:00,
2013-10-14 20:17:00,58.3,57.2,30.22,NW,320,1.0,3.0,96,0.00,,,0.03,meteohub,2013-10-15 00:17:00,
2013-10-14 20:22:00,58.3,57.2,30.22,NW,320,2.0,3.0,96,0.00,,,0.03,meteohub,2013-10-15 00:22:00,
2013-10-14 20:27:00,58.1,57.0,30.22,NW,320,2.0,3.0,96,0.00,,,0.03,meteohub,2013-10-15 00:27:00,
2013-10-14 20:32:00,57.9,56.8,30.22,NW,320,1.0,3.0,96,0.00,,,0.03,meteohub,2013-10-15 00:32:00,
2013-10-14 20:37:00,57.9,56.8,30.22,NW,320,3.0,3.0,96,0.00,,,0.03,meteohub,2013-10-15 00:37:00,
2013-10-14 20:42:00,57.9,56.8,30.22,NW,320,2.0,3.0,96,0.00,,,0.03,meteohub,2013-10-15 00:42:00,
2013-10-14 20:47:00,57.9,56.8,30.22,NW,305,2.0,3.0,96,0.00,,,0.03,meteohub,2013-10-15 00:47:00,
2013-10-14 20:52:00,57.9,56.8,30.22,NW,318,2.0,4.0,96,0.00,,,0.03,meteohub,2013-10-15 00:52:00,
2013-10-14 20:57:00,57.7,56.8,30.22,NW,318,3.0,4.0,97,0.00,,,0.03,meteohub,2013-10-15 00:57:00,
2013-10-14 21:02:00,57.7,56.8,30.22,NW,318,2.0,4.0,97,0.00,,,0.03,meteohub,2013-10-15 01:02:00,
2013-10-14 21:07:00,57.7,56.8,30.22,NW,323,3.0,4.0,97,0.00,,,0.03,meteohub,2013-10-15 01:07:00,
2013-10-14 21:12:00,57.9,57.0,30.22,NW,323,2.0,4.0,97,0.00,,,0.03,meteohub,2013-10-15 01:12:00,
2013-10-14 21:17:00,57.9,57.0,30.22,NW,316,2.0,4.0,97,0.00,,,0.03,meteohub,2013-10-15 01:17:00,
2013-10-14 21:22:00,57.9,57.0,30.22,NNW,327,4.0,4.0,97,0.00,,,0.03,meteohub,2013-10-15 01:22:00,
2013-10-14 21:27:00,57.9,57.0,30.22,NW,326,2.0,4.0,97,0.00,,,0.03,meteohub,2013-10-15 01:27:00,
2013-10-14 21:32:00,57.7,56.8,30.22,NW,326,3.0,4.0,97,0.00,,,0.03,meteohub,2013-10-15 01:32:00,
2013-10-14 21:37:00,57.7,56.8,30.22,NW,326,2.0,4.0,97,0.00,,,0.03,meteohub,2013-10-15 01:37:00,
2013-10-14 21:42:00,57.7,56.8,30.23,NW,326,2.0,4.0,97,0.00,,,0.03,meteohub,2013-10-15 01:42:00,
2013-10-14 21:47:00,57.6,56.7,30.22,NW,326,3.0,4.0,97,0.00,,,0.03,meteohub,2013-10-15 01:47:00,
2013-10-14 21:52:00,57.6,56.7,30.22,NW,326,3.0,4.0,97,0.00,,,0.03,meteohub,2013-10-15 01:52:00,
2013-10-14 21:57:00,57.4,56.5,30.22,NNW,327,2.0,4.0,97,0.00,,,0.03,meteohub,2013-10-15 01:57:00,
2013-10-14 22:02:00,57.4,56.5,30.22,NW,320,3.0,4.0,97,0.00,,,0.03,meteohub,2013-10-15 02:02:00,
2013-10-14 22:07:00,57.2,56.3,30.23,NW,320,3.0,4.0,97,0.00,,,0.03,meteohub,2013-10-15 02:07:00,
2013-10-14 22:12:00,57.2,56.3,30.23,NW,317,3.0,4.0,97,0.00,,,0.03,meteohub,2013-10-15 02:12:00,
2013-10-14 22:17:00,57.0,56.1,30.23,NW,317,4.0,4.0,97,0.00,,,0.03,meteohub,2013-10-15 02:17:00,
2013-10-14 22:22:00,57.0,56.1,30.23,NW,318,2.0,4.0,97,0.00,,,0.03,meteohub,2013-10-15 02:22:00,
2013-10-14 22:27:00,56.8,55.9,30.23,NW,318,3.0,4.0,97,0.00,,,0.03,meteohub,2013-10-15 02:27:00,
2013-10-14 22:32:00,56.8,55.9,30.23,NW,318,3.0,4.0,97,0.00,,,0.03,meteohub,2013-10-15 02:32:00,
2013-10-14 22:37:00,56.7,55.8,30.23,NW,318,3.0,4.0,97,0.00,,,0.03,meteohub,2013-10-15 02:37:00,
2013-10-14 22:42:00,56.7,55.8,30.23,NW,318,1.0,4.0,97,0.00,,,0.03,meteohub,2013-10-15 02:42:00,
2013-10-14 22:47:00,56.7,55.8,30.23,NW,318,3.0,4.0,97,0.00,,,0.03,meteohub,2013-10-15 02:47:00,
2013-10-14 22:52:00,56.5,55.6,30.23,NW,318,2.0,4.0,97,0.00,,,0.03,meteohub,2013-10-15 02:52:00,
2013-10-14 22:57:00,56.5,55.6,30.23,NW,318,2.0,4.0,97,0.00,,,0.03,meteohub,2013-10-15 02:57:00,
2013-10-14 23:02:00,56.5,55.6,30.23,NW,320,3.0,4.0,97,0.00,,,0.03,meteohub,2013-10-15 03:02:00,
2013-10-14 23:07:00,56.3,55.4,30.22,NW,320,3.0,4.0,97,0.00,,,0.03,meteohub,2013-10-15 03:07:00,
2013-10-14 23:12:00,56.3,55.4,30.22,NW,320,3.0,4.0,97,0.00,,,0.03,meteohub,2013-10-15 03:12:00,
2013-10-14 23:17:00,56.1,55.2,30.22,NW,319,2.0,4.0,97,0.00,,,0.03,meteohub,2013-10-15 03:17:00,
2013-10-14 23:22:00,56.1,55.2,30.22,NW,311,2.0,4.0,97,0.00,,,0.03,meteohub,2013-10-15 03:22:00,
2013-10-14 23:27:00,55.9,55.0,30.22,NW,311,2.0,4.0,97,0.00,,,0.03,meteohub,2013-10-15 03:27:00,
2013-10-14 23:32:00,55.9,55.0,30.22,NW,311,2.0,3.0,97,0.00,,,0.03,meteohub,2013-10-15 03:32:00,
2013-10-14 23:37:00,55.9,55.0,30.22,NW,311,2.0,3.0,97,0.00,,,0.03,meteohub,2013-10-15 03:37:00,
2013-10-14 23:42:00,55.8,54.9,30.22,NW,311,2.0,3.0,97,0.00,,,0.03,meteohub,2013-10-15 03:42:00,
2013-10-14 23:47:00,55.8,55.2,30.22,NW,323,2.0,4.0,98,0.00,,,0.03,meteohub,2013-10-15 03:47:00,
2013-10-14 23:52:00,55.8,54.9,30.22,NW,323,2.0,4.0,97,0.00,,,0.03,meteohub,2013-10-15 03:52:00,
2013-10-14 23:57:00,55.8,54.9,30.22,NW,323,2.0,4.0,97,0.00,,,0.03,meteohub,2013-10-15 03:57:00,